QPF
0.03 0.04 0.07 0.08 0.07 0.02 0.00 0.00 0.00 0.00 0.00 0.00 0.00 0.00 0.01 0.02 0.01 0.01 0.00 0.00 0.00 0.00 0.00 0.01 0.01 0.01 0.00 0.00 0.00 0.00 0.00 0.00 0.00 0.00 0.00 0.00 0.00 0.00 0.00 0.00 0.00 0.00 0.00 0.00 0.00 0.00 0.01 0.01 0.01
0.05 0.08 0.09 0.09 0.03 0.00 0.01 0.01 0.00 0.00 0.00 0.00 0.00 0.00 0.01 0.03 0.03 0.04 0.01 0.00 0.00 0.00 0.00 0.00 0.01 0.01 0.01 0.00 0.00 0.00 0.00 0.00 0.00 0.00 0.00 0.00 0.00 0.00 0.00 0.00 0.00 0.00 0.00 0.00 0.00 0.00 0.01 0.01 0.01
0.09 0.12 0.12 0.08 0.03 0.02 0.02 0.02 0.01 0.01 0.00 0.00 0.00 0.01 0.02 0.03 0.06 0.06 0.02 0.01 0.00 0.00 0.00 0.01 0.01 0.01 0.01 0.00 0.00 0.00 0.00 0.00 0.00 0.00 0.00 0.00 0.00 0.00 0.00 0.00 0.00 0.00 0.00 0.00 0.00 0.00 0.01 0.01 0.01
0.11 0.14 0.10 0.07 0.06 0.08 0.07 0.05 0.03 0.01 0.00 0.00 0.00 0.01 0.02 0.04 0.08 0.08 0.05 0.03 0.02 0.01 0.01 0.02 0.02 0.02 0.02 0.02 0.01 0.00 0.00 0.00 0.00 0.00 0.00 0.00 0.00 0.00 0.00 0.00 0.00 0.00 0.00 0.00 0.00 0.00 0.01 0.01 0.01
0.11 0.10 0.06 0.07 0.14 0.18 0.14 0.09 0.04 0.01 0.01 0.01 0.01 0.02 0.04 0.05 0.13 0.14 0.13 0.10 0.08 0.07 0.06 0.06 0.07 0.05 0.04 0.03 0.03 0.02 0.01 0.01 0.00 0.00 0.00 0.00 0.00 0.00 0.00 0.00 0.00 0.00 0.00 0.00 0.00 0.00 0.00 0.01 0.02
0.07 0.04 0.03 0.07 0.17 0.22 0.20 0.15 0.09 0.05 0.03 0.02 0.03 0.04 0.05 0.08 0.18 0.25 0.27 0.27 0.25 0.22 0.17 0.12 0.12 0.12 0.09 0.07 0.06 0.05 0.03 0.02 0.01 0.01 0.01 0.00 0.00 0.00 0.00 0.00 0.00 0.00 0.00 0.00 0.00 0.00 0.00 0.01 0.03
0.04 0.03 0.04 0.07 0.12 0.22 0.20 0.19 0.15 0.11 0.07 0.05 0.04 0.04 0.06 0.10 0.17 0.27 0.34 0.37 0.45 0.41 0.29 0.22 0.19 0.19 0.19 0.16 0.14 0.11 0.10 0.08 0.06 0.04 0.02 0.01 0.01 0.00 0.00 0.00 0.00 0.00 0.00 0.00 0.00 0.00 0.00 0.01 0.03
0.04 0.02 0.04 0.06 0.06 0.12 0.14 0.14 0.12 0.12 0.07 0.05 0.04 0.04 0.05 0.09 0.17 0.28 0.34 0.38 0.43 0.45 0.39 0.31 0.28 0.25 0.24 0.21 0.20 0.19 0.17 0.16 0.14 0.11 0.08 0.05 0.03 0.01 0.01 0.00 0.00 0.00 0.00 0.00 0.00 0.00 0.00 0.01 0.03
0.04 0.02 0.02 0.03 0.02 0.04 0.06 0.09 0.07 0.05 0.05 0.04 0.03 0.02 0.05 0.07 0.12 0.20 0.26 0.29 0.29 0.31 0.33 0.31 0.31 0.30 0.28 0.25 0.20 0.21 0.22 0.21 0.19 0.15 0.17 0.15 0.07 0.03 0.02 0.02 0.01 0.01 0.01 0.01 0.00 0.00 0.00 0.00 0.02
0.03 0.02 0.01 0.01 0.01 0.02 0.04 0.05 0.05 0.04 0.04 0.03 0.02 0.02 0.03 0.05 0.08 0.11 0.13 0.15 0.16 0.18 0.19 0.20 0.21 0.23 0.24 0.23 0.25 0.26 0.27 0.24 0.19 0.14 0.16 0.16 0.12 0.06 0.04 0.02 0.04 0.06 0.05 0.03 0.01 0.00 0.00 0.00 0.00
0.02 0.01 0.00 0.01 0.01 0.03 0.04 0.05 0.04 0.03 0.03 0.02 0.03 0.03 0.03 0.04 0.05 0.06 0.06 0.07 0.07 0.08 0.09 0.10 0.12 0.14 0.16 0.18 0.20 0.22 0.24 0.25 0.21 0.18 0.16 0.15 0.14 0.09 0.07 0.03 0.03 0.06 0.10 0.06 0.02 0.01 0.00 0.00 0.00
0.01 0.01 0.01 0.01 0.02 0.04 0.05 0.04 0.04 0.03 0.02 0.01 0.01 0.02 0.03 0.03 0.03 0.02 0.03 0.03 0.02 0.02 0.02 0.03 0.03 0.04 0.05 0.06 0.09 0.12 0.16 0.20 0.23 0.23 0.22 0.20 0.17 0.14 0.11 0.08 0.05 0.06 0.09 0.11 0.06 0.02 0.00 0.00 0.00
0.00 0.01 0.01 0.01 0.03 0.03 0.03 0.03 0.03 0.02 0.01 0.01 0.01 0.01 0.01 0.01 0.01 0.01 0.01 0.01 0.00 0.00 0.00 0.00 0.00 0.01 0.01 0.02 0.03 0.04 0.07 0.10 0.14 0.17 0.19 0.17 0.17 0.19 0.17 0.13 0.11 0.13 0.16 0.17 0.13 0.06 0.03 0.01 0.00
0.01 0.01 0.02 0.02 0.03 0.02 0.02 0.02 0.01 0.01 0.01 0.01 0.00 0.00 0.00 0.00 0.00 0.00 0.00 0.00 0.00 0.00 0.00 0.00 0.00 0.00 0.00 0.00 0.01 0.01 0.02 0.03 0.05 0.08 0.12 0.13 0.13 0.16 0.19 0.18 0.13 0.11 0.16 0.20 0.21 0.15 0.07 0.04 0.02
0.02 0.01 0.02 0.02 0.02 0.02 0.02 0.01 0.01 0.01 0.00 0.00 0.00 0.00 0.00 0.00 0.00 0.00 0.00 0.00 0.00 0.00 0.00 0.00 0.00 0.00 0.00 0.00 0.00 0.00 0.00 0.00 0.02 0.04 0.06 0.06 0.08 0.12 0.16 0.17 0.13 0.09 0.13 0.21 0.26 0.26 0.13 0.06 0.04
0.02 0.01 0.01 0.01 0.01 0.01 0.01 0.01 0.00 0.00 0.00 0.00 0.00 0.00 0.00 0.00 0.00 0.00 0.00 0.00 0.00 0.00 0.00 0.00 0.00 0.00 0.00 0.00 0.00 0.00 0.00 0.00 0.00 0.01 0.02 0.03 0.03 0.04 0.07 0.12 0.13 0.13 0.14 0.19 0.28 0.33 0.27 0.12 0.06
0.01 0.00 0.00 0.00 0.00 0.01 0.01 0.00 0.00 0.00 0.00 0.00 0.00 0.00 0.00 0.00 0.00 0.00 0.00 0.00 0.00 0.00 0.00 0.00 0.00 0.00 0.00 0.00 0.00 0.00 0.00 0.00 0.00 0.00 0.01 0.01 0.02 0.03 0.04 0.06 0.09 0.12 0.14 0.14 0.20 0.28 0.30 0.23 0.12
0.00 0.00 0.00 0.00 0.00 0.01 0.01 0.00 0.00 0.01 0.00 0.00 0.00 0.00 0.00 0.00 0.00 0.00 0.00 0.00 0.00 0.00 0.00 0.00 0.00 0.00 0.00 0.00 0.00 0.00 0.00 0.00 0.00 0.00 0.00 0.01 0.01 0.03 0.03 0.04 0.07 0.10 0.12 0.13 0.17 0.24 0.26 0.24 0.21
0.00 0.00 0.00 0.00 0.00 0.00 0.00 0.00 0.00 0.00 0.00 0.00 0.00 0.00 0.00 0.00 0.00 0.00 0.00 0.00 0.00 0.00 0.00 0.00 0.00 0.00 0.00 0.00 0.00 0.00 0.00 0.00 0.00 0.00 0.00 0.00 0.00 0.01 0.02 0.03 0.04 0.06 0.06 0.10 0.17 0.22 0.26 0.26 0.27
0.00 0.00 0.00 0.00 0.00 0.00 0.00 0.00 0.00 0.00 0.00 0.00 0.00 0.00 0.00 0.00 0.00 0.00 0.00 0.00 0.00 0.00 0.00 0.00 0.00 0.00 0.00 0.00 0.00 0.00 0.00 0.00 0.00 0.00 0.00 0.00 0.00 0.01 0.01 0.02 0.03 0.03 0.04 0.06 0.11 0.16 0.20 0.25 0.27
0.00 0.00 0.00 0.00 0.00 0.00 0.00 0.00 0.00 0.00 0.00 0.00 0.00 0.00 0.00 0.00 0.00 0.00 0.00 0.00 0.00 0.00 0.00 0.00 0.00 0.00 0.00 0.00 0.00 0.00 0.00 0.00 0.00 0.00 0.00 0.00 0.00 0.00 0.01 0.01 0.02 0.02 0.02 0.03 0.05 0.08 0.12 0.19 0.25
0.00 0.00 0.00 0.00 0.00 0.00 0.00 0.00 0.00 0.00 0.00 0.00 0.00 0.00 0.00 0.00 0.00 0.00 0.00 0.00 0.00 0.00 0.00 0.00 0.00 0.00 0.00 0.00 0.00 0.00 0.00 0.00 0.00 0.01 0.01 0.01 0.01 0.01 0.01 0.01 0.02 0.02 0.02 0.02 0.03 0.06 0.07 0.11 0.16
0.00 0.00 0.00 0.00 0.00 0.00 0.00 0.00 0.00 0.00 0.00 0.00 0.00 0.00 0.00 0.00 0.00 0.00 0.00 0.00 0.00 0.00 0.00 0.00 0.00 0.00 0.00 0.00 0.00 0.00 0.00 0.01 0.02 0.02 0.02 0.02 0.02 0.02 0.02 0.02 0.03 0.03 0.03 0.03 0.04 0.06 0.07 0.08 0.08
0.00 0.00 0.00 0.00 0.00 0.00 0.00 0.00 0.00 0.00 0.00 0.00 0.00 0.00 0.00 0.00 0.00 0.00 0.00 0.00 0.00 0.00 0.00 0.00 0.00 0.00 0.00 0.00 0.00 0.00 0.00 0.00 0.01 0.01 0.01 0.01 0.01 0.01 0.01 0.02 0.02 0.03 0.03 0.04 0.05 0.07 0.08 0.09 0.09
0.00 0.00 0.00 0.00 0.00 0.00 0.00 0.00 0.00 0.00 0.00 0.00 0.00 0.00 0.00 0.00 0.00 0.00 0.00 0.00 0.00 0.00 0.00 0.00 0.00 0.00 0.00 0.00 0.00 0.00 0.00 0.00 0.01 0.01 0.01 0.01 0.01 0.01 0.01 0.02 0.03 0.04 0.04 0.05 0.06 0.07 0.07 0.09 0.11
0.00 0.00 0.00 0.00 0.00 0.00 0.00 0.00 0.00 0.00 0.00 0.00 0.00 0.00 0.00 0.00 0.00 0.00 0.00 0.00 0.00 0.00 0.00 0.00 0.00 0.00 0.00 0.00 0.00 0.00 0.00 0.00 0.01 0.01 0.01 0.01 0.02 0.02 0.02 0.03 0.04 0.06 0.07 0.08 0.08 0.08 0.09 0.10 0.11
0.00 0.00 0.00 0.00 0.00 0.00 0.00 0.00 0.00 0.00 0.00 0.00 0.00 0.00 0.00 0.00 0.00 0.00 0.00 0.00 0.00 0.00 0.00 0.00 0.00 0.00 0.00 0.00 0.00 0.00 0.00 0.00 0.00 0.01 0.01 0.01 0.03 0.04 0.03 0.04 0.06 0.06 0.08 0.09 0.09 0.08 0.08 0.11 0.13
0.00 0.00 0.00 0.00 0.00 0.00 0.00 0.00 0.00 0.00 0.00 0.00 0.00 0.00 0.00 0.00 0.00 0.00 0.00 0.00 0.00 0.00 0.00 0.00 0.00 0.00 0.00 0.00 0.00 0.00 0.00 0.00 0.00 0.00 0.00 0.01 0.02 0.03 0.04 0.04 0.04 0.05 0.07 0.07 0.07 0.08 0.09 0.09 0.09
0.00 0.00 0.00 0.00 0.00 0.00 0.00 0.00 0.00 0.00 0.00 0.00 0.00 0.00 0.00 0.00 0.00 0.00 0.00 0.00 0.00 0.00 0.00 0.00 0.00 0.00 0.00 0.00 0.00 0.00 0.00 0.00 0.00 0.00 0.00 0.00 0.00 0.01 0.01 0.02 0.02 0.03 0.03 0.04 0.06 0.08 0.09 0.08 0.09
0.00 0.00 0.00 0.00 0.00 0.00 0.00 0.00 0.00 0.00 0.00 0.00 0.00 0.00 0.00 0.00 0.00 0.00 0.00 0.00 0.00 0.00 0.00 0.00 0.00 0.00 0.00 0.00 0.00 0.00 0.00 0.00 0.00 0.00 0.00 0.00 0.00 0.00 0.00 0.00 0.01 0.01 0.01 0.01 0.03 0.07 0.09 0.08 0.08
MSLP
1011.28 1012.54 1014.01 1015.50 1016.81 1017.78 1018.31 1018.39 1018.08 1017.54 1016.93 1016.41 1016.08 1015.96 1016.00 1016.10 1016.16 1016.06 1015.77 1015.32 1014.77 1014.24 1013.83 1013.62 1013.64 1013.86 1014.21 1014.60 1014.93 1015.17 1015.29 1015.32 1015.31 1015.30 1015.35 1015.45 1015.61 1015.77 1015.91 1015.99 1015.99 1015.93 1015.84 1015.74 1015.68 1015.67 1015.70 1015.76 1015.82
1011.84 1013.31 1014.93 1016.49 1017.79 1018.66 1019.03 1018.90 1018.37 1017.62 1016.83 1016.17 1015.73 1015.55 1015.55 1015.65 1015.71 1015.64 1015.40 1015.01 1014.53 1014.08 1013.75 1013.60 1013.68 1013.92 1014.28 1014.65 1014.97 1015.19 1015.30 1015.33 1015.33 1015.34 1015.41 1015.52 1015.68 1015.83 1015.94 1015.98 1015.95 1015.87 1015.77 1015.69 1015.65 1015.66 1015.72 1015.80 1015.87
1012.51 1014.14 1015.85 1017.42 1018.66 1019.41 1019.62 1019.32 1018.64 1017.74 1016.85 1016.10 1015.61 1015.37 1015.35 1015.42 1015.46 1015.40 1015.18 1014.82 1014.41 1014.02 1013.76 1013.67 1013.78 1014.04 1014.38 1014.72 1015.00 1015.17 1015.25 1015.26 1015.25 1015.28 1015.35 1015.48 1015.63 1015.77 1015.86 1015.87 1015.82 1015.73 1015.63 1015.57 1015.56 1015.61 1015.70 1015.81 1015.90
1013.25 1014.96 1016.68 1018.20 1019.34 1019.97 1020.06 1019.65 1018.88 1017.94 1017.01 1016.26 1015.75 1015.50 1015.44 1015.47 1015.48 1015.39 1015.16 1014.82 1014.44 1014.11 1013.90 1013.85 1013.98 1014.22 1014.52 1014.79 1015.00 1015.10 1015.12 1015.09 1015.08 1015.10 1015.18 1015.32 1015.48 1015.61 1015.69 1015.70 1015.65 1015.56 1015.48 1015.44 1015.47 1015.56 1015.69 1015.83 1015.94
1013.97 1015.69 1017.36 1018.79 1019.81 1020.33 1020.32 1019.87 1019.10 1018.19 1017.32 1016.62 1016.16 1015.92 1015.84 1015.83 1015.78 1015.64 1015.38 1015.04 1014.68 1014.38 1014.20 1014.16 1014.28 1014.47 1014.69 1014.87 1014.97 1014.98 1014.93 1014.86 1014.81 1014.84 1014.93 1015.09 1015.26 1015.41 1015.50 1015.51 1015.47 1015.40 1015.35 1015.34 1015.41 1015.54 1015.70 1015.87 1016.00
1014.62 1016.29 1017.85 1019.14 1020.03 1020.45 1020.40 1019.96 1019.26 1018.47 1017.73 1017.15 1016.77 1016.57 1016.49 1016.44 1016.34 1016.14 1015.84 1015.48 1015.12 1014.83 1014.65 1014.61 1014.68 1014.80 1014.92 1014.97 1014.95 1014.85 1014.71 1014.59 1014.52 1014.54 1014.66 1014.84 1015.03 1015.20 1015.31 1015.35 1015.33 1015.29 1015.27 1015.31 1015.41 1015.57 1015.76 1015.94 1016.08
1015.18 1016.74 1018.15 1019.28 1020.03 1020.36 1020.30 1019.92 1019.36 1018.74 1018.18 1017.77 1017.50 1017.37 1017.30 1017.22 1017.06 1016.81 1016.47 1016.09 1015.72 1015.43 1015.24 1015.17 1015.17 1015.19 1015.18 1015.11 1014.96 1014.74 1014.52 1014.34 1014.25 1014.28 1014.41 1014.61 1014.84 1015.03 1015.17 1015.22 1015.23 1015.22 1015.24 1015.31 1015.44 1015.63 1015.84 1016.03 1016.16
1015.65 1017.06 1018.29 1019.24 1019.85 1020.11 1020.06 1019.78 1019.38 1018.96 1018.61 1018.37 1018.24 1018.18 1018.13 1018.04 1017.85 1017.56 1017.20 1016.80 1016.43 1016.13 1015.92 1015.79 1015.71 1015.63 1015.49 1015.28 1015.01 1014.69 1014.39 1014.17 1014.06 1014.09 1014.24 1014.46 1014.70 1014.91 1015.05 1015.13 1015.15 1015.17 1015.21 1015.31 1015.47 1015.68 1015.89 1016.08 1016.21
1016.03 1017.28 1018.32 1019.09 1019.58 1019.78 1019.75 1019.58 1019.34 1019.11 1018.96 1018.89 1018.88 1018.90 1018.89 1018.80 1018.59 1018.29 1017.91 1017.52 1017.15 1016.85 1016.61 1016.43 1016.27 1016.08 1015.82 1015.49 1015.10 1014.70 1014.34 1014.08 1013.97 1013.99 1014.14 1014.36 1014.60 1014.80 1014.94 1015.01 1015.04 1015.07 1015.13 1015.26 1015.44 1015.66 1015.89 1016.09 1016.21
1016.36 1017.44 1018.31 1018.92 1019.29 1019.45 1019.45 1019.37 1019.27 1019.21 1019.22 1019.29 1019.39 1019.47 1019.49 1019.40 1019.20 1018.90 1018.54 1018.16 1017.81 1017.51 1017.25 1017.02 1016.78 1016.49 1016.13 1015.70 1015.23 1014.76 1014.36 1014.08 1013.94 1013.96 1014.09 1014.29 1014.50 1014.68 1014.79 1014.84 1014.86 1014.89 1014.97 1015.11 1015.32 1015.56 1015.81 1016.01 1016.13
1016.66 1017.60 1018.31 1018.79 1019.06 1019.19 1019.22 1019.22 1019.24 1019.31 1019.43 1019.60 1019.76 1019.88 1019.91 1019.83 1019.64 1019.35 1019.02 1018.67 1018.34 1018.05 1017.77 1017.51 1017.20 1016.83 1016.39 1015.88 1015.35 1014.84 1014.41 1014.11 1013.97 1013.96 1014.06 1014.22 1014.38 1014.50 1014.57 1014.58 1014.58 1014.61 1014.69 1014.86 1015.09 1015.36 1015.62 1015.85 1015.99
1016.96 1017.78 1018.36 1018.74 1018.96 1019.06 1019.12 1019.18 1019.28 1019.44 1019.63 1019.84 1020.02 1020.14 1020.16 1020.08 1019.89 1019.63 1019.33 1019.02 1018.71 1018.43 1018.15 1017.84 1017.49 1017.06 1016.55 1016.00 1015.43 1014.89 1014.45 1014.14 1013.98 1013.94 1014.00 1014.10 1014.19 1014.25 1014.26 1014.24 1014.22 1014.24 1014.33 1014.51 1014.77 1015.07 1015.37 1015.61 1015.78
1017.26 1017.99 1018.49 1018.81 1018.99 1019.10 1019.20 1019.31 1019.46 1019.65 1019.86 1020.06 1020.23 1020.31 1020.31 1020.21 1020.02 1019.77 1019.50 1019.21 1018.93 1018.65 1018.35 1018.02 1017.62 1017.16 1016.61 1016.03 1015.45 1014.91 1014.47 1014.15 1013.96 1013.89 1013.89 1013.92 1013.94 1013.93 1013.89 1013.83 1013.80 1013.82 1013.93 1014.13 1014.42 1014.74 1015.07 1015.35 1015.53
1017.57 1018.23 1018.68 1018.97 1019.16 1019.30 1019.44 1019.59 1019.77 1019.98 1020.17 1020.33 1020.44 1020.47 1020.41 1020.28 1020.08 1019.83 1019.57 1019.29 1019.02 1018.73 1018.42 1018.06 1017.64 1017.14 1016.58 1016.00 1015.41 1014.89 1014.44 1014.11 1013.90 1013.78 1013.72 1013.69 1013.65 1013.58 1013.50 1013.43 1013.38 1013.42 1013.54 1013.77 1014.07 1014.42 1014.77 1015.07 1015.28
1017.89 1018.49 1018.91 1019.20 1019.43 1019.62 1019.81 1020.01 1020.21 1020.41 1020.56 1020.67 1020.70 1020.66 1020.54 1020.36 1020.13 1019.87 1019.60 1019.33 1019.04 1018.74 1018.41 1018.02 1017.57 1017.05 1016.50 1015.92 1015.35 1014.83 1014.40 1014.06 1013.81 1013.65 1013.53 1013.44 1013.35 1013.25 1013.14 1013.06 1013.04 1013.09 1013.23 1013.47 1013.79 1014.15 1014.50 1014.81 1015.03
1018.22 1018.76 1019.16 1019.48 1019.75 1020.00 1020.25 1020.50 1020.72 1020.90 1021.01 1021.05 1021.01 1020.89 1020.71 1020.48 1020.21 1019.93 1019.65 1019.35 1019.05 1018.72 1018.35 1017.94 1017.47 1016.95 1016.40 1015.84 1015.30 1014.80 1014.37 1014.02 1013.74 1013.53 1013.36 1013.22 1013.08 1012.96 1012.85 1012.79 1012.78 1012.86 1013.02 1013.27 1013.59 1013.93 1014.28 1014.57 1014.79
1018.54 1019.02 1019.41 1019.76 1020.08 1020.41 1020.72 1021.01 1021.24 1021.40 1021.47 1021.45 1021.33 1021.15 1020.91 1020.64 1020.34 1020.04 1019.73 1019.41 1019.07 1018.70 1018.30 1017.86 1017.38 1016.87 1016.34 1015.81 1015.30 1014.82 1014.40 1014.03 1013.72 1013.46 1013.24 1013.05 1012.89 1012.75 1012.66 1012.61 1012.63 1012.72 1012.90 1013.14 1013.44 1013.76 1014.08 1014.35 1014.56
1018.86 1019.28 1019.66 1020.04 1020.42 1020.80 1021.17 1021.48 1021.72 1021.85 1021.87 1021.79 1021.61 1021.38 1021.10 1020.80 1020.49 1020.17 1019.84 1019.49 1019.12 1018.72 1018.29 1017.83 1017.34 1016.85 1016.35 1015.85 1015.38 1014.93 1014.51 1014.13 1013.78 1013.47 1013.20 1012.96 1012.77 1012.63 1012.53 1012.51 1012.55 1012.65 1012.83 1013.05 1013.31 1013.59 1013.87 1014.11 1014.32
1019.17 1019.54 1019.92 1020.32 1020.75 1021.18 1021.57 1021.89 1022.10 1022.19 1022.15 1022.01 1021.80 1021.53 1021.23 1020.92 1020.61 1020.29 1019.95 1019.59 1019.19 1018.76 1018.31 1017.84 1017.36 1016.88 1016.42 1015.97 1015.54 1015.12 1014.71 1014.31 1013.92 1013.56 1013.23 1012.95 1012.72 1012.56 1012.47 1012.45 1012.49 1012.60 1012.75 1012.94 1013.15 1013.38 1013.61 1013.83 1014.03
1019.48 1019.82 1020.20 1020.63 1021.09 1021.54 1021.94 1022.23 1022.39 1022.40 1022.29 1022.09 1021.83 1021.53 1021.24 1020.95 1020.66 1020.37 1020.04 1019.67 1019.26 1018.82 1018.35 1017.87 1017.40 1016.96 1016.55 1016.15 1015.76 1015.38 1014.98 1014.56 1014.14 1013.73 1013.34 1013.00 1012.73 1012.54 1012.42 1012.39 1012.42 1012.50 1012.62 1012.76 1012.92 1013.08 1013.26 1013.46 1013.66
1019.77 1020.12 1020.53 1021.00 1021.49 1021.94 1022.29 1022.52 1022.58 1022.49 1022.29 1022.01 1021.69 1021.39 1021.11 1020.86 1020.62 1020.36 1020.07 1019.72 1019.31 1018.86 1018.38 1017.91 1017.47 1017.06 1016.69 1016.35 1016.02 1015.67 1015.29 1014.87 1014.42 1013.95 1013.51 1013.11 1012.78 1012.54 1012.39 1012.32 1012.32 1012.36 1012.42 1012.49 1012.58 1012.69 1012.82 1012.99 1013.19
1020.07 1020.46 1020.94 1021.46 1021.96 1022.39 1022.68 1022.79 1022.72 1022.49 1022.16 1021.78 1021.41 1021.10 1020.85 1020.65 1020.47 1020.27 1020.03 1019.71 1019.32 1018.88 1018.40 1017.94 1017.52 1017.15 1016.83 1016.55 1016.27 1015.97 1015.61 1015.19 1014.72 1014.22 1013.72 1013.26 1012.87 1012.57 1012.37 1012.25 1012.19 1012.17 1012.16 1012.16 1012.17 1012.21 1012.28 1012.42 1012.62
1020.38 1020.87 1021.43 1022.02 1022.53 1022.92 1023.10 1023.07 1022.83 1022.43 1021.95 1021.47 1021.04 1020.71 1020.49 1020.35 1020.24 1020.12 1019.94 1019.66 1019.30 1018.87 1018.40 1017.95 1017.54 1017.21 1016.94 1016.71 1016.49 1016.24 1015.92 1015.52 1015.04 1014.51 1013.97 1013.46 1013.01 1012.65 1012.39 1012.20 1012.08 1011.98 1011.89 1011.81 1011.74 1011.69 1011.70 1011.79 1011.98
1020.72 1021.34 1022.01 1022.66 1023.19 1023.51 1023.57 1023.38 1022.95 1022.37 1021.73 1021.12 1020.63 1020.29 1020.09 1020.01 1019.98 1019.93 1019.82 1019.59 1019.25 1018.84 1018.38 1017.93 1017.55 1017.24 1017.01 1016.84 1016.68 1016.48 1016.20 1015.83 1015.37 1014.83 1014.27 1013.72 1013.23 1012.81 1012.48 1012.23 1012.03 1011.86 1011.69 1011.52 1011.35 1011.22 1011.14 1011.17 1011.30
1021.09 1021.86 1022.65 1023.36 1023.88 1024.13 1024.06 1023.69 1023.07 1022.30 1021.51 1020.79 1020.23 1019.87 1019.71 1019.68 1019.72 1019.75 1019.69 1019.51 1019.20 1018.80 1018.35 1017.91 1017.53 1017.25 1017.05 1016.93 1016.81 1016.67 1016.45 1016.12 1015.69 1015.17 1014.60 1014.04 1013.52 1013.06 1012.69 1012.38 1012.11 1011.86 1011.60 1011.34 1011.07 1010.84 1010.67 1010.60 1010.65
1021.49 1022.40 1023.29 1024.04 1024.54 1024.71 1024.51 1023.97 1023.17 1022.24 1021.30 1020.49 1019.88 1019.52 1019.37 1019.39 1019.49 1019.58 1019.57 1019.42 1019.14 1018.75 1018.30 1017.86 1017.50 1017.23 1017.06 1016.97 1016.91 1016.82 1016.65 1016.38 1015.99 1015.51 1014.97 1014.41 1013.88 1013.41 1013.00 1012.64 1012.32 1011.99 1011.66 1011.31 1010.95 1010.61 1010.33 1010.15 1010.09
1021.90 1022.91 1023.86 1024.62 1025.08 1025.15 1024.83 1024.14 1023.20 1022.14 1021.11 1020.23 1019.59 1019.22 1019.10 1019.16 1019.30 1019.42 1019.45 1019.33 1019.06 1018.67 1018.23 1017.80 1017.44 1017.19 1017.05 1016.99 1016.97 1016.92 1016.81 1016.59 1016.26 1015.82 1015.32 1014.80 1014.29 1013.81 1013.39 1013.00 1012.63 1012.26 1011.86 1011.43 1010.98 1010.54 1010.15 1009.86 1009.68
1022.27 1023.32 1024.29 1025.02 1025.41 1025.38 1024.94 1024.15 1023.11 1021.97 1020.88 1019.98 1019.33 1018.98 1018.88 1018.96 1019.12 1019.26 1019.30 1019.19 1018.93 1018.55 1018.12 1017.70 1017.35 1017.12 1017.00 1016.96 1016.97 1016.97 1016.91 1016.74 1016.46 1016.09 1015.64 1015.16 1014.68 1014.22 1013.80 1013.41 1013.02 1012.61 1012.16 1011.67 1011.16 1010.63 1010.15 1009.74 1009.45
1022.53 1023.57 1024.48 1025.14 1025.43 1025.31 1024.78 1023.92 1022.83 1021.67 1020.59 1019.70 1019.09 1018.75 1018.67 1018.76 1018.93 1019.06 1019.09 1018.98 1018.72 1018.35 1017.94 1017.54 1017.21 1017.00 1016.91 1016.90 1016.93 1016.96 1016.93 1016.81 1016.58 1016.26 1015.86 1015.43 1015.00 1014.57 1014.17 1013.79 1013.39 1012.97 1012.50 1011.98 1011.41 1010.83 1010.28 1009.79 1009.40
1022.64 1023.59 1024.40 1024.94 1025.12 1024.90 1024.32 1023.43 1022.35 1021.23 1020.21 1019.38 1018.82 1018.52 1018.46 1018.54 1018.69 1018.80 1018.81 1018.68 1018.42 1018.07 1017.68 1017.31 1017.02 1016.85 1016.77 1016.79 1016.85 1016.89 1016.89 1016.79 1016.60 1016.33 1015.98 1015.60 1015.21 1014.83 1014.46 1014.09 1013.71 1013.29 1012.81 1012.27 1011.69 1011.09 1010.50 1009.96 1009.51
Thickness
5817 5814 5810 5797 5772 5755 5748 5754 5764 5768 5772 5780 5784 5780 5772 5765 5759 5757 5777 5786 5786 5784 5781 5780 5778 5776 5774 5772 5770 5768 5767 5766 5764 5763 5762 5762 5761 5760 5760 5759 5759 5758 5758 5758 5758 5758 5759 5759 5760
5817 5813 5802 5783 5758 5739 5745 5756 5760 5768 5778 5784 5784 5779 5772 5768 5773 5773 5779 5783 5783 5782 5779 5778 5776 5774 5773 5771 5770 5768 5767 5765 5764 5763 5762 5761 5761 5760 5759 5759 5758 5758 5757 5757 5756 5756 5757 5757 5757
5817 5812 5790 5770 5752 5741 5747 5759 5764 5774 5782 5781 5776 5775 5769 5765 5772 5775 5780 5782 5780 5778 5777 5775 5774 5772 5771 5770 5769 5767 5766 5765 5764 5763 5762 5762 5761 5760 5759 5759 5758 5757 5757 5756 5756 5755 5755 5755 5755
5812 5797 5783 5763 5748 5751 5755 5761 5770 5773 5776 5777 5773 5765 5766 5769 5771 5777 5781 5779 5776 5774 5773 5771 5771 5769 5768 5768 5767 5766 5765 5764 5764 5763 5762 5761 5761 5760 5760 5759 5758 5758 5757 5756 5755 5755 5754 5754 5754
5806 5786 5765 5751 5749 5755 5760 5766 5771 5767 5766 5767 5767 5758 5757 5766 5773 5776 5776 5774 5771 5769 5768 5767 5766 5766 5765 5765 5764 5764 5764 5764 5763 5762 5762 5761 5761 5760 5760 5759 5759 5758 5757 5756 5756 5755 5754 5753 5753
5791 5778 5752 5742 5746 5754 5759 5764 5765 5762 5763 5764 5762 5755 5752 5761 5765 5768 5770 5768 5766 5764 5763 5762 5762 5762 5762 5762 5762 5762 5762 5762 5762 5762 5761 5761 5760 5760 5759 5759 5759 5758 5757 5756 5756 5755 5755 5754 5753
5785 5769 5752 5747 5744 5748 5757 5764 5758 5755 5755 5756 5760 5751 5751 5756 5760 5762 5763 5761 5760 5758 5757 5756 5757 5757 5758 5758 5759 5759 5760 5760 5760 5761 5760 5760 5760 5759 5759 5758 5758 5758 5757 5756 5756 5755 5755 5755 5754
5792 5771 5752 5747 5745 5747 5757 5761 5758 5753 5751 5759 5758 5745 5742 5749 5755 5757 5756 5755 5753 5752 5751 5751 5751 5752 5754 5754 5755 5757 5757 5758 5758 5759 5759 5758 5758 5758 5758 5758 5758 5757 5757 5757 5756 5756 5755 5755 5755
5795 5762 5747 5749 5749 5749 5754 5753 5754 5755 5751 5750 5749 5745 5744 5748 5750 5748 5746 5745 5745 5745 5746 5745 5746 5747 5748 5750 5751 5752 5753 5754 5755 5756 5756 5756 5756 5756 5756 5757 5757 5757 5756 5756 5756 5756 5756 5755 5755
5782 5755 5755 5759 5758 5751 5749 5747 5746 5743 5737 5736 5736 5738 5740 5740 5739 5736 5733 5732 5732 5734 5737 5738 5739 5741 5742 5744 5745 5747 5748 5750 5752 5753 5753 5753 5753 5754 5754 5755 5755 5755 5756 5755 5755 5755 5755 5755 5755
5776 5759 5759 5758 5758 5753 5745 5741 5742 5734 5724 5725 5723 5724 5727 5728 5726 5724 5723 5722 5723 5725 5727 5730 5732 5734 5735 5737 5739 5741 5743 5745 5747 5748 5749 5750 5750 5751 5752 5752 5753 5753 5754 5754 5755 5754 5754 5754 5753
5767 5760 5761 5757 5758 5750 5742 5738 5731 5726 5721 5724 5722 5720 5718 5716 5714 5713 5712 5712 5714 5715 5718 5721 5723 5725 5728 5730 5731 5734 5736 5738 5740 5742 5744 5745 5746 5747 5748 5749 5750 5751 5751 5752 5752 5753 5752 5752 5752
5762 5755 5755 5753 5750 5744 5738 5730 5725 5718 5720 5719 5716 5712 5708 5705 5704 5703 5704 5704 5704 5705 5707 5710 5714 5716 5718 5721 5723 5726 5728 5731 5733 5736 5738 5740 5742 5744 5745 5746 5747 5748 5749 5749 5750 5750 5751 5751 5751
5758 5752 5747 5745 5742 5738 5728 5722 5718 5711 5714 5710 5705 5701 5699 5697 5695 5694 5694 5694 5694 5695 5697 5700 5703 5706 5708 5711 5713 5716 5719 5723 5726 5729 5731 5734 5736 5739 5741 5743 5744 5746 5746 5747 5747 5748 5748 5748 5749
5757 5743 5736 5735 5734 5729 5723 5709 5707 5708 5706 5699 5695 5693 5691 5689 5688 5686 5686 5685 5686 5686 5688 5690 5694 5697 5699 5702 5705 5708 5711 5715 5718 5721 5724 5727 5730 5733 5735 5738 5740 5741 5743 5744 5744 5744 5744 5744 5745
5746 5731 5720 5725 5726 5723 5713 5695 5701 5703 5696 5688 5686 5684 5683 5682 5681 5680 5680 5679 5679 5680 5681 5682 5685 5687 5690 5692 5696 5699 5702 5706 5709 5713 5716 5720 5723 5726 5729 5731 5734 5736 5738 5739 5740 5740 5740 5740 5740
5729 5717 5715 5716 5721 5716 5705 5693 5697 5697 5690 5682 5679 5677 5675 5674 5675 5674 5674 5674 5673 5673 5673 5674 5676 5678 5681 5684 5687 5690 5694 5697 5701 5704 5708 5711 5715 5718 5721 5724 5727 5730 5732 5734 5736 5737 5736 5734 5734
5719 5716 5714 5710 5713 5707 5696 5690 5690 5690 5684 5677 5674 5672 5670 5669 5669 5669 5669 5669 5668 5667 5667 5667 5669 5670 5673 5676 5679 5682 5685 5688 5692 5695 5699 5703 5707 5710 5713 5717 5719 5722 5724 5727 5729 5730 5732 5731 5731
5730 5719 5710 5709 5712 5701 5691 5685 5683 5683 5679 5673 5670 5668 5667 5667 5667 5667 5666 5665 5663 5662 5661 5661 5662 5663 5665 5666 5669 5671 5674 5678 5682 5686 5690 5694 5698 5702 5706 5709 5712 5714 5717 5720 5723 5723 5725 5726 5726
5721 5710 5704 5704 5706 5696 5684 5680 5682 5681 5678 5674 5670 5667 5666 5665 5664 5663 5662 5661 5659 5658 5657 5657 5657 5658 5658 5659 5660 5662 5666 5669 5673 5677 5681 5685 5689 5693 5698 5701 5704 5706 5709 5712 5715 5716 5717 5720 5721
5713 5706 5702 5697 5693 5688 5680 5673 5676 5679 5679 5675 5672 5669 5667 5665 5661 5660 5659 5658 5657 5655 5655 5654 5654 5654 5654 5654 5655 5658 5660 5663 5666 5668 5672 5676 5679 5684 5688 5692 5695 5699 5702 5705 5707 5710 5711 5711 5714
5705 5711 5707 5698 5682 5670 5675 5655 5670 5672 5672 5672 5670 5667 5665 5664 5662 5660 5658 5657 5656 5655 5654 5653 5652 5652 5651 5651 5650 5650 5650 5652 5655 5658 5663 5667 5671 5675 5679 5683 5687 5691 5694 5698 5701 5704 5705 5706 5706
5709 5710 5703 5694 5681 5667 5666 5656 5662 5670 5666 5668 5669 5668 5667 5665 5663 5661 5660 5658 5658 5656 5654 5653 5651 5650 5649 5648 5646 5646 5646 5647 5650 5653 5656 5660 5664 5668 5671 5675 5679 5683 5687 5690 5694 5697 5700 5702 5703
5712 5699 5688 5676 5667 5657 5666 5654 5658 5663 5669 5673 5672 5670 5669 5667 5665 5663 5662 5661 5659 5658 5655 5653 5650 5649 5647 5646 5645 5643 5643 5644 5646 5647 5650 5653 5657 5660 5664 5668 5671 5675 5679 5683 5687 5690 5693 5696 5699
5702 5683 5663 5662 5650 5653 5667 5659 5663 5680 5680 5679 5675 5672 5671 5668 5665 5663 5662 5661 5659 5658 5656 5653 5650 5648 5646 5645 5643 5642 5641 5641 5641 5642 5643 5646 5649 5652 5655 5658 5662 5666 5670 5675 5679 5682 5686 5690 5693
5695 5684 5662 5656 5647 5651 5664 5660 5675 5688 5689 5685 5681 5677 5673 5670 5667 5666 5665 5663 5661 5659 5657 5654 5650 5647 5646 5644 5642 5641 5640 5638 5638 5638 5639 5640 5642 5644 5647 5650 5653 5657 5661 5665 5669 5674 5678 5683 5686
5693 5680 5678 5659 5658 5650 5656 5668 5682 5689 5687 5684 5681 5677 5674 5672 5671 5669 5668 5666 5663 5661 5659 5655 5652 5649 5646 5644 5642 5641 5639 5637 5636 5636 5636 5636 5637 5639 5640 5643 5645 5648 5651 5655 5659 5664 5668 5673 5677
5702 5684 5669 5661 5655 5648 5654 5661 5670 5686 5684 5683 5680 5677 5676 5675 5673 5672 5670 5668 5666 5664 5661 5658 5654 5650 5647 5644 5642 5640 5638 5636 5635 5634 5633 5633 5634 5634 5636 5637 5639 5641 5644 5647 5651 5655 5659 5663 5667
5695 5684 5668 5656 5656 5645 5645 5660 5688 5692 5693 5687 5684 5682 5680 5678 5676 5674 5672 5671 5669 5667 5664 5660 5657 5653 5649 5646 5643 5640 5638 5636 5634 5632 5631 5630 5630 5630 5631 5632 5633 5634 5636 5639 5642 5646 5649 5653 5656
5705 5694 5674 5665 5660 5648 5643 5660 5700 5697 5696 5693 5690 5687 5685 5682 5680 5677 5675 5673 5671 5669 5666 5663 5659 5655 5652 5648 5644 5641 5638 5636 5633 5631 5629 5628 5627 5627 5626 5627 5627 5628 5630 5632 5635 5637 5640 5643 5646